EW2980 Weather Reports


time (UTC)temp
F
wind
direction
speed
knots
gust
knots
rain 1hr
in
rain 24hr
in
rain mn
in
humidity
%
barometer
mb
20260507101543 62 16 0.0 1.7 0.00 0.00 0.00 61 1011.4
20260507100036 62 16 0.9 2.6 0.00 0.00 0.00 61 1011.4
20260507094533 62 16 0.0 0.9 0.00 0.00 0.00 61 1011.3
20260507093037 61 16 0.0 0.0 0.00 0.00 0.00 64 1011.3
20260507091529 62 16 0.0 0.9 0.00 0.00 0.00 65 1011.4
20260507090031 62 16 0.0 0.9 0.00 0.00 0.00 63 1011.3
20260507084525 63 16 0.0 0.9 0.00 0.00 0.00 62 1011.6
20260507083035 63 16 0.0 0.0 0.00 0.00 0.00 62 1011.6
20260507081527 62 16 0.0 0.0 0.00 0.00 0.00 63 1011.8
20260507080020 62 16 0.0 0.9 0.00 0.00 0.00 63 1012.1
20260507074526 62 16 0.0 1.7 0.00 0.00 0.00 65 1012.1
20260507073015 63 16 0.0 0.0 0.00 0.00 0.00 65 1012.2
20260507071512 64 16 0.0 0.0 0.00 0.00 0.00 63 1012.4
20260507070013 64 16 0.0 0.0 0.00 0.00 0.00 63 1012.6
20260507064511 63 16 0.0 0.0 0.00 0.00 0.00 65 1012.7
20260507063009 63 16 0.0 0.0 0.00 0.00 0.00 67 1012.9
20260507061509 63 16 0.0 0.0 0.00 0.00 0.00 68 1013.0
20260507060009 63 16 0.0 0.0 0.00 0.00 0.00 67 1013.1
20260507054510 63 16 0.0 1.7 0.00 0.00 0.00 68 1013.1
20260507053008 64 16 0.0 0.0 0.00 0.00 0.00 68 1013.3
20260507051508 65 16 0.0 0.0 0.00 0.00 0.00 68 1013.5
20260507050010 65 16 0.0 0.0 0.00 0.00 0.00 68 1013.5
20260507044507 65 16 0.0 0.9 0.00 0.00 0.00 68 1013.4
20260507043007 65 16 0.0 0.9 0.00 0.00 0.00 68 1013.3
20260507041505 65 16 0.0 1.7 0.00 0.00 0.00 68 1013.3
20260507040005 66 16 0.0 1.7 0.00 0.00 0.00 68 1013.2
20260507034504 66 16 0.0 2.6 0.00 0.00 0.00 68 1013.2
20260507033004 66 332 0.9 3.5 0.00 0.00 0.00 68 1013.2
20260507031503 66 330 0.9 3.5 0.00 0.00 0.00 68 1013.1
20260507030003 67 15 0.0 2.6 0.00 0.00 0.00 68 1013.0
20260507024502 67 348 0.0 3.5 0.00 0.00 0.00 68 1012.7
20260507023001 67 346 0.9 2.6 0.00 0.00 0.00 68 1012.6
20260507021500 68 321 0.9 4.3 0.00 0.00 0.00 68 1012.7
20260507020104 68 360 1.7 4.3 0.00 0.00 0.00 67 1012.7
20260507014609 69 321 2.6 7.0 0.00 0.00 0.00 67 1012.5
20260507013058 70 324 2.6 7.8 0.00 0.00 0.00 66 1012.5
20260507011604 71 316 3.5 8.7 0.00 0.00 0.00 65 1012.3
20260507010058 71 22 4.3 8.7 0.00 0.00 0.00 63 1012.3
20260507004557 72 301 3.5 7.8 0.00 0.00 0.00 65 1012.2
20260507003055 72 355 3.5 7.8 0.00 0.00 0.00 64 1012.2
20260507001614 72 13 1.7 5.2 0.00 0.00 0.00 66 1012.1
20260507000059 0 0.0 0.0 0.00 0.00 0.00 1012.1
20260506234549 0 0.0 0.0 0.00 0.00 0.00 1012.0
20260506233044 0 0.0 0.0 0.00 0.00 0.00 1012.0
20260506231540 0 0.0 0.0 0.00 0.00 0.00 1012.0
20260506230042 0 0.0 0.0 0.00 0.00 0.00 1012.0
20260506224538 0 0.0 0.0 0.00 0.00 0.00 1012.0
20260506223025 76 360 4.3 10.4 0.00 0.00 0.00 57 1012.1